Regional Weather Roundup
Issued by NWS

Home | Current Version | Previous Version | Graphics & Text | Print | Product List | Glossary On
Versions: 1 2 3 4 5 6 7 8 9 10 11 12 13 14 15 16 17 18 19 20 21 22 23 24 25 26 27 28 29 30 31 32 33 34 35 36 37 38 39 40 41 42 43 44 45 46 47 48 49 50
000
ASUS45 KABQ 260210
RWRNM
WEATHER ROUNDUP FOR NEW MEXICO
NATIONAL WEATHER SERVICE ALBUQUERQUE NM
700 PM MST SUN JAN 25 2015

NOTE: "FAIR" MEANS FEW OR NO CLOUDS BELOW 12,000 FEET AGL WITH NO
       SIGNIFICANT WEATHER OR OBSTRUCTIONS TO VISION.

      THIS PRODUCT IS RELEASED AS TWO VERSIONS.  ONE VERSION NEAR
      THE TOP OF THE HOUR CONTAINING PRELIMINARY DATA FROM ALBUQUERQUE
      AND OTHER STATIONS.  A FINAL VERSION WITH ADDITIONAL DATA IS
      ISSUED ABOUT 10 MINUTES AFTER THE HOUR.

NMZ501-503-504-510>518-260300-
NORTHWEST PLATEAU/NORTHCENTRAL MOUNTAINS

CITY           SKY/WX    TMP DP  RH WIND       PRES   REMARKS
FARMINGTON     CLEAR     39  21  48 S5        30.28R
LOS ALAMOS     CLEAR     43  22  44 N3        30.30S
SANTA FE       CLEAR     35  21  56 NW8       30.27R WCI  29
TAOS           PTCLDY    34  21  60 N6        30.30R WCI  29
ANGEL FIRE     FAIR      29  22  74 S7        30.32R WCI  22

$$
NMZ402-403-502-505>509-260300-
WESTCENTRAL MOUNTAINS/SOUTHWEST MOUNTAINS

CITY           SKY/WX    TMP DP  RH WIND       PRES   REMARKS
GALLUP         CLEAR     39  24  55 CALM      30.30R
GRANTS         CLEAR     34  26  71 NW14      30.32R WCI  25
SILVER CITY    PTCLDY    37  21  52 NE5       30.28S WCI  34

$$
NMZ407-409-411-412-260300-
SOUTHERN DESERTS

CITY           SKY/WX    TMP DP  RH WIND       PRES   REMARKS
LORDSBURG      FAIR      43  27  52 S8        30.25R
DEMING         MOCLDY    44  28  53 S5        30.26R
LAS CRUCES     MOCLDY    42  32  69 CALM      30.26S
HOLLOMAN AFB   PTCLDY    42  30  60 N7        30.25R
ALAMOGORDO     PTCLDY    45  27  49 N6        30.27R
T OR C         CLEAR     48  20  32 S5        30.26R

$$
NMZ519>523-260300-
CENTRAL VALLEYS/CENTRAL HIGHLANDS

CITY           SKY/WX    TMP DP  RH WIND       PRES   REMARKS
ALBUQUERQUE    PTCLDY    48  25  40 N7        30.28R
DOUBLE EAGLE   CLEAR     37  25  60 NW10      30.28R WCI  30
MORIARTY ARPT  FAIR      34  24  66 CALM      30.29R
CLINES CORNERS PTCLDY    39  21  48 N7        30.26R WCI  34
BELEN          FAIR      38  23  54 CALM      30.27R
SOCORRO        FAIR      41  27  57 W6        30.26R

$$
NMZ524>526-539-540-260300-
SOUTHCENTRAL MOUNTAINS

CITY           SKY/WX    TMP DP  RH WIND       PRES   REMARKS
RUIDOSO        CLEAR     41  23  48 CALM      30.31S

$$
NMZ527>531-260300-
NORTHEAST HIGHLANDS/NORTHEAST PLAINS

CITY           SKY/WX    TMP DP  RH WIND       PRES   REMARKS
LAS VEGAS      PTCLDY    33  23  66 S3        30.28R
RATON          PTCLDY    30  24  78 N7        30.26R WCI  23
CLAYTON        CLEAR     39  28  64 W10       30.21R WCI  32

$$
NMZ532>537-260300-
EASTCENTRAL PLAINS

CITY           SKY/WX    TMP DP  RH WIND       PRES   REMARKS
TUCUMCARI      CLEAR     38  31  76 W8        30.23R WCI  32
CANNON AFB     PTCLDY    39  30  68 W8        30.24S WCI  34
CLOVIS AIRPORT PTCLDY    37  28  70 W10       30.24S WCI  30

$$
NMZ028-029-538-260300-
SOUTHEAST PLAINS

CITY           SKY/WX    TMP DP  RH WIND       PRES   REMARKS
ROSWELL        CLEAR     41  31  67 S9        30.26R
ARTESIA        CLEAR     43  32  65 S9        30.28R
CARLSBAD       CLEAR     40  28  62 S7        30.27R
HOBBS          CLEAR     45  28  53 CALM      30.28R


$$



USA.gov is the U.S. government's official web portal to all federal, state and local government web resources and services.